Find Gorizont

NORAD ID: 11440 Int'l Des: 1979-062 Owner: MSVYAZ Country: SU operational
HEOCIRCULARGSO

現在のビュー

3D地球を読み込み中...

About Gorizont

Gorizont (NORAD 11440) is a satellite launched Jul 5, 1979 by MSVYAZ of SU. It operates in HEO, CIRCULAR, GSO orbit with a mass of 2120.00 kg.

次回通過

Passes for default location (London). Set your location on the main map for personalized predictions.

高度履歴

Loading altitude history...

軌道要素

1 11440U 79062A 26195.63006837 .00000028 00000-0 00000-0 0 9990
2 11440 5.6693 285.6117 0004394 345.2623 310.9896 1.00251572138298
Epoch: Jul 14, 2026 • Age: 7 hours

現在のステータス

高度 35781.4 km
遠地点 / 近地点 N/A
速度 3.08 km/s
衛星直下点 3.87°N, 62.43°E
打ち上げ日 Jul 5, 1979
運用期間 47 years
タイプ other

技術仕様

分類 Payload
質量 2120.00 kg
乾燥質量 2000.00 kg
総質量 2120.00 kg
長さ 5.50 m
直径 3.30 m
スパン 9.50 m
形状 Cyl + 2 Pan
製造者 NPOPM
バスタイプ Gorizont
フェーズステータス In Orbit
所有者/国 MSVYAZ/SU

Most Searched